Time,TemperatureF,DewpointF,PressureIn,WindDirection,WindDirectionDegrees,WindSpeedMPH,WindSpeedGustMPH,Humidity,HourlyPrecipIn,Conditions,Clouds,dailyrainin,SoftwareType,DateUTC
2013-02-12 00:01:00,40.8,38.4,30.36,ESE,112,0.0,0.0,91,0.00,,OVC003,0.00,VWS V14.01,2013-02-12 08:01:00,
2013-02-12 00:06:00,40.8,38.4,30.36,ESE,112,0.0,0.0,91,0.00,,OVC002,0.00,VWS V14.01,2013-02-12 08:06:00,
2013-02-12 00:11:00,40.8,38.4,30.36,ESE,112,0.0,0.0,91,0.00,,OVC002,0.00,VWS V14.01,2013-02-12 08:11:00,
2013-02-12 00:16:00,40.8,38.4,30.35,ESE,112,0.0,0.0,91,0.00,,OVC002,0.00,VWS V14.01,2013-02-12 08:16:00,
2013-02-12 00:21:00,40.8,38.4,30.36,ESE,112,0.0,0.0,91,0.00,,OVC002,0.00,VWS V14.01,2013-02-12 08:21:00,
2013-02-12 00:26:00,40.8,38.4,30.36,ESE,112,0.0,0.0,91,0.00,,OVC002,0.00,VWS V14.01,2013-02-12 08:26:00,
2013-02-12 00:31:00,40.8,38.4,30.36,ESE,112,0.0,0.0,91,0.00,,OVC002,0.00,VWS V14.01,2013-02-12 08:31:00,
2013-02-12 00:36:00,40.8,38.4,30.36,ESE,112,0.0,0.0,91,0.00,,OVC002,0.00,VWS V14.01,2013-02-12 08:36:00,
2013-02-12 00:41:00,40.8,38.4,30.36,ESE,112,0.0,0.0,91,0.00,,OVC002,0.00,VWS V14.01,2013-02-12 08:41:00,
2013-02-12 00:46:00,40.8,38.4,30.36,ESE,112,0.0,0.0,91,0.00,,OVC002,0.00,VWS V14.01,2013-02-12 08:46:00,
2013-02-12 00:51:00,40.8,38.4,30.36,ESE,112,0.0,0.0,91,0.00,,OVC002,0.00,VWS V14.01,2013-02-12 08:51:00,
2013-02-12 00:56:00,40.8,38.4,30.36,ESE,112,0.0,0.0,91,0.00,,OVC002,0.00,VWS V14.01,2013-02-12 08:56:00,
2013-02-12 01:01:00,40.8,38.4,30.35,ESE,112,0.0,0.0,91,0.00,,OVC002,0.00,VWS V14.01,2013-02-12 09:01:00,
2013-02-12 01:06:00,40.8,38.4,30.35,ESE,112,0.0,0.0,91,0.00,,OVC002,0.00,VWS V14.01,2013-02-12 09:06:00,
2013-02-12 01:11:00,40.8,38.4,30.35,ESE,112,0.0,0.0,91,0.00,,OVC002,0.00,VWS V14.01,2013-02-12 09:11:00,
2013-02-12 01:16:00,40.6,38.2,30.35,ESE,112,0.0,0.0,91,0.00,,OVC002,0.00,VWS V14.01,2013-02-12 09:16:00,
2013-02-12 01:21:00,40.6,38.2,30.36,ESE,112,0.0,0.0,91,0.00,,OVC002,0.00,VWS V14.01,2013-02-12 09:21:00,
2013-02-12 01:26:00,40.6,38.2,30.36,ESE,112,0.0,0.0,91,0.00,,OVC002,0.00,VWS V14.01,2013-02-12 09:26:00,
2013-02-12 01:32:00,40.6,38.2,30.35,ESE,112,0.0,0.0,91,0.00,,OVC002,0.00,VWS V14.01,2013-02-12 09:32:00,
2013-02-12 01:37:00,40.6,38.2,30.35,ESE,112,0.0,0.0,91,0.00,,OVC002,0.00,VWS V14.01,2013-02-12 09:37:00,
2013-02-12 01:42:00,40.6,38.2,30.34,ESE,112,0.0,0.0,91,0.00,,OVC002,0.00,VWS V14.01,2013-02-12 09:42:00,
2013-02-12 01:47:00,40.6,38.2,30.34,ESE,112,0.0,0.0,91,0.00,,OVC002,0.00,VWS V14.01,2013-02-12 09:47:00,
2013-02-12 01:52:00,40.4,38.0,30.34,ESE,112,0.0,0.0,91,0.00,,OVC002,0.00,VWS V14.01,2013-02-12 09:52:00,
2013-02-12 01:57:00,40.2,37.8,30.35,East,90,0.0,0.0,91,0.00,,OVC002,0.00,VWS V14.01,2013-02-12 09:57:00,
2013-02-12 02:02:00,40.4,38.0,30.35,East,90,0.0,0.0,91,0.00,,OVC003,0.00,VWS V14.01,2013-02-12 10:02:00,
2013-02-12 02:07:00,40.4,38.0,30.35,East,90,0.0,0.0,91,0.00,,OVC003,0.00,VWS V14.01,2013-02-12 10:07:00,
2013-02-12 02:12:00,40.4,38.0,30.35,East,90,0.0,0.0,91,0.00,,OVC003,0.00,VWS V14.01,2013-02-12 10:12:00,
2013-02-12 02:17:00,40.6,38.2,30.36,East,90,0.0,0.0,91,0.00,,OVC003,0.00,VWS V14.01,2013-02-12 10:17:00,
2013-02-12 02:22:00,40.6,38.2,30.36,East,90,0.0,0.0,91,0.00,,OVC003,0.00,VWS V14.01,2013-02-12 10:22:00,
2013-02-12 02:27:00,40.6,38.2,30.36,East,90,0.0,0.0,91,0.00,,OVC003,0.00,VWS V14.01,2013-02-12 10:27:00,
2013-02-12 02:32:00,40.6,38.2,30.36,East,90,0.0,0.0,91,0.00,,OVC003,0.00,VWS V14.01,2013-02-12 10:32:00,
2013-02-12 02:37:00,40.6,38.2,30.36,East,90,0.0,0.0,91,0.00,,OVC003,0.00,VWS V14.01,2013-02-12 10:37:00,
2013-02-12 02:42:00,40.6,38.2,30.36,East,90,0.0,0.0,91,0.00,,OVC003,0.00,VWS V14.01,2013-02-12 10:42:00,
2013-02-12 02:47:00,40.6,38.2,30.36,East,90,0.0,0.0,91,0.00,,OVC003,0.00,VWS V14.01,2013-02-12 10:47:00,
2013-02-12 02:52:00,40.6,38.5,30.36,East,90,0.0,0.0,92,0.00,,OVC003,0.00,VWS V14.01,2013-02-12 10:52:00,
2013-02-12 02:57:00,40.6,38.2,30.36,East,90,0.0,0.0,91,0.00,,OVC003,0.00,VWS V14.01,2013-02-12 10:57:00,
2013-02-12 03:02:00,40.6,38.5,30.36,East,90,0.0,0.0,92,0.00,,OVC003,0.00,VWS V14.01,2013-02-12 11:02:00,
2013-02-12 03:07:00,40.6,38.5,30.36,East,90,0.0,0.0,92,0.00,,OVC003,0.00,VWS V14.01,2013-02-12 11:07:00,
2013-02-12 03:12:00,40.6,38.5,30.36,East,90,0.0,0.0,92,0.00,,OVC003,0.00,VWS V14.01,2013-02-12 11:12:00,
2013-02-12 03:17:00,40.6,38.5,30.35,East,90,0.0,0.0,92,0.00,,OVC003,0.00,VWS V14.01,2013-02-12 11:17:00,
2013-02-12 03:22:00,40.6,38.5,30.35,East,90,0.0,0.0,92,0.00,,OVC003,0.00,VWS V14.01,2013-02-12 11:22:00,
2013-02-12 03:28:00,40.6,38.5,30.35,East,90,0.0,0.0,92,0.00,,OVC003,0.00,VWS V14.01,2013-02-12 11:28:00,
2013-02-12 03:33:00,40.6,38.5,30.36,East,90,0.0,0.0,92,0.00,,OVC003,0.00,VWS V14.01,2013-02-12 11:33:00,
2013-02-12 03:38:00,40.6,38.5,30.36,East,90,0.0,0.0,92,0.00,,OVC003,0.00,VWS V14.01,2013-02-12 11:38:00,
2013-02-12 03:43:00,40.6,38.5,30.36,East,90,0.0,0.0,92,0.00,,OVC003,0.00,VWS V14.01,2013-02-12 11:43:00,
2013-02-12 03:48:00,40.6,38.5,30.36,East,90,0.0,0.0,92,0.00,,OVC003,0.00,VWS V14.01,2013-02-12 11:48:00,
2013-02-12 03:53:00,40.6,38.5,30.36,East,90,0.0,0.0,92,0.00,,OVC003,0.00,VWS V14.01,2013-02-12 11:53:00,
2013-02-12 03:58:00,40.6,38.5,30.36,East,90,0.0,0.0,92,0.00,,OVC003,0.00,VWS V14.01,2013-02-12 11:58:00,
2013-02-12 04:03:00,40.6,38.5,30.36,East,90,0.0,0.0,92,0.00,,OVC003,0.00,VWS V14.01,2013-02-12 12:03:00,
2013-02-12 04:08:00,40.6,38.5,30.36,East,90,0.0,0.0,92,0.00,,OVC003,0.00,VWS V14.01,2013-02-12 12:08:00,
2013-02-12 04:13:00,40.6,38.5,30.37,East,90,0.0,0.0,92,0.00,,OVC003,0.00,VWS V14.01,2013-02-12 12:13:00,
2013-02-12 04:18:00,40.6,38.5,30.37,East,90,0.0,0.0,92,0.00,,OVC003,0.00,VWS V14.01,2013-02-12 12:18:00,
2013-02-12 04:23:00,40.6,38.5,30.37,East,90,0.0,0.0,92,0.00,,OVC003,0.00,VWS V14.01,2013-02-12 12:23:00,
2013-02-12 04:28:00,40.6,38.5,30.37,East,90,0.0,0.0,92,0.00,,OVC003,0.00,VWS V14.01,2013-02-12 12:28:00,
2013-02-12 04:33:00,40.6,38.5,30.36,East,90,0.0,0.0,92,0.00,,OVC003,0.00,VWS V14.01,2013-02-12 12:33:00,
2013-02-12 04:38:00,40.6,38.5,30.36,East,90,0.0,0.0,92,0.00,,OVC003,0.00,VWS V14.01,2013-02-12 12:38:00,
2013-02-12 04:43:00,40.6,38.5,30.36,East,90,0.0,0.0,92,0.00,,OVC003,0.00,VWS V14.01,2013-02-12 12:43:00,
2013-02-12 04:49:00,40.6,38.5,30.36,East,90,0.0,0.0,92,0.00,,OVC003,0.00,VWS V14.01,2013-02-12 12:49:00,
2013-02-12 04:54:00,40.6,38.5,30.35,East,90,0.0,0.0,92,0.00,,OVC003,0.00,VWS V14.01,2013-02-12 12:54:00,
2013-02-12 04:59:00,40.6,38.5,30.36,East,90,0.0,0.0,92,0.00,,OVC003,0.00,VWS V14.01,2013-02-12 12:59:00,
2013-02-12 05:04:00,40.4,38.3,30.36,East,90,0.0,0.0,92,0.00,,OVC003,0.00,VWS V14.01,2013-02-12 13:04:00,
2013-02-12 05:09:00,40.4,38.3,30.36,East,90,0.0,0.0,92,0.00,,OVC003,0.00,VWS V14.01,2013-02-12 13:09:00,
2013-02-12 05:14:00,40.2,38.1,30.36,East,90,0.0,0.0,92,0.00,,OVC003,0.00,VWS V14.01,2013-02-12 13:14:00,
2013-02-12 05:19:00,40.2,38.1,30.36,East,90,0.0,0.0,92,0.00,,OVC003,0.00,VWS V14.01,2013-02-12 13:19:00,
2013-02-12 05:24:00,40.2,38.1,30.36,East,90,0.0,0.0,92,0.00,,OVC003,0.00,VWS V14.01,2013-02-12 13:24:00,
2013-02-12 05:29:00,40.1,38.0,30.36,East,90,0.0,0.0,92,0.00,,OVC003,0.00,VWS V14.01,2013-02-12 13:29:00,
2013-02-12 05:34:00,40.1,38.0,30.36,East,90,0.0,0.0,92,0.00,,OVC003,0.00,VWS V14.01,2013-02-12 13:34:00,
2013-02-12 05:39:00,40.1,38.0,30.36,East,90,0.0,0.0,92,0.00,,OVC003,0.00,VWS V14.01,2013-02-12 13:39:00,
2013-02-12 05:44:00,40.1,38.0,30.36,East,90,0.0,0.0,92,0.00,,OVC003,0.00,VWS V14.01,2013-02-12 13:44:00,
2013-02-12 05:49:00,40.1,38.0,30.36,East,90,0.0,0.0,92,0.00,,OVC003,0.00,VWS V14.01,2013-02-12 13:49:00,
2013-02-12 05:54:00,40.1,38.0,30.37,East,90,0.0,0.0,92,0.00,,OVC003,0.00,VWS V14.01,2013-02-12 13:54:00,
2013-02-12 05:59:00,40.1,38.0,30.37,East,90,0.0,0.0,92,0.00,,OVC003,0.00,VWS V14.01,2013-02-12 13:59:00,
2013-02-12 06:04:00,40.1,38.0,30.36,East,90,0.0,0.0,92,0.00,,OVC004,0.00,VWS V14.01,2013-02-12 14:04:00,
2013-02-12 06:09:00,40.2,38.1,30.36,East,90,0.0,0.0,92,0.00,,OVC004,0.00,VWS V14.01,2013-02-12 14:09:00,
2013-02-12 06:14:00,40.2,38.1,30.36,East,90,0.0,0.0,92,0.00,,OVC004,0.00,VWS V14.01,2013-02-12 14:14:00,
2013-02-12 06:19:00,40.2,38.1,30.36,East,90,0.0,0.0,92,0.00,,OVC004,0.00,VWS V14.01,2013-02-12 14:19:00,
2013-02-12 06:24:00,40.2,38.1,30.36,East,90,0.0,0.0,92,0.00,,OVC004,0.00,VWS V14.01,2013-02-12 14:24:00,
2013-02-12 06:30:00,40.2,38.1,30.36,East,90,0.0,0.0,92,0.00,,OVC004,0.00,VWS V14.01,2013-02-12 14:30:00,
2013-02-12 06:35:00,40.2,38.1,30.36,East,90,0.0,0.0,92,0.00,,OVC004,0.00,VWS V14.01,2013-02-12 14:35:00,
2013-02-12 06:40:00,40.2,38.1,30.36,East,90,0.0,0.0,92,0.00,,OVC004,0.00,VWS V14.01,2013-02-12 14:40:00,
2013-02-12 06:45:00,40.2,38.1,30.36,East,90,0.0,0.0,92,0.00,,OVC004,0.00,VWS V14.01,2013-02-12 14:45:00,
2013-02-12 06:50:00,40.2,38.1,30.37,East,90,0.0,0.0,92,0.00,,OVC004,0.00,VWS V14.01,2013-02-12 14:50:00,
2013-02-12 06:55:00,40.2,38.1,30.37,East,90,0.0,0.0,92,0.00,,OVC004,0.00,VWS V14.01,2013-02-12 14:55:00,
2013-02-12 07:00:00,40.2,38.1,30.37,East,90,0.0,0.0,92,0.00,,OVC004,0.00,VWS V14.01,2013-02-12 15:00:00,
2013-02-12 07:05:00,40.2,38.1,30.37,East,90,0.0,0.0,92,0.00,,OVC004,0.00,VWS V14.01,2013-02-12 15:05:00,
2013-02-12 07:10:00,40.4,38.3,30.37,East,90,0.0,0.0,92,0.00,,OVC004,0.00,VWS V14.01,2013-02-12 15:10:00,
2013-02-12 07:15:00,40.4,38.3,30.37,East,90,0.0,0.0,92,0.00,,OVC004,0.00,VWS V14.01,2013-02-12 15:15:00,
2013-02-12 07:20:00,40.4,38.3,30.37,East,90,0.0,0.0,92,0.00,,OVC004,0.00,VWS V14.01,2013-02-12 15:20:00,
2013-02-12 07:25:00,40.4,38.3,30.37,East,90,0.0,0.0,92,0.00,,OVC004,0.00,VWS V14.01,2013-02-12 15:25:00,
2013-02-12 07:30:00,40.4,38.3,30.37,East,90,0.0,0.0,92,0.00,,OVC004,0.00,VWS V14.01,2013-02-12 15:30:00,
2013-02-12 07:35:00,40.6,38.5,30.37,East,90,0.0,0.0,92,0.00,,OVC004,0.00,VWS V14.01,2013-02-12 15:35:00,
2013-02-12 07:40:00,40.6,38.5,30.37,East,90,0.0,0.0,92,0.00,,OVC004,0.00,VWS V14.01,2013-02-12 15:40:00,
2013-02-12 07:45:00,40.6,38.5,30.37,East,90,0.0,0.0,92,0.00,,OVC004,0.00,VWS V14.01,2013-02-12 15:45:00,
2013-02-12 07:50:00,40.8,38.7,30.37,ESE,112,0.0,0.0,92,0.00,,OVC004,0.00,VWS V14.01,2013-02-12 15:50:00,
2013-02-12 07:55:00,40.8,38.7,30.37,East,90,0.0,0.0,92,0.00,,OVC004,0.00,VWS V14.01,2013-02-12 15:55:00,
2013-02-12 08:00:00,40.8,38.7,30.38,ESE,112,0.0,0.0,92,0.00,,OVC004,0.00,VWS V14.01,2013-02-12 16:00:00,
2013-02-12 08:05:00,40.8,38.7,30.38,ESE,112,0.0,0.0,92,0.00,,OVC004,0.00,VWS V14.01,2013-02-12 16:05:00,
2013-02-12 08:10:00,40.8,38.7,30.38,SSE,158,0.0,0.0,92,0.00,,OVC004,0.00,VWS V14.01,2013-02-12 16:10:00,
2013-02-12 08:15:00,40.8,38.7,30.38,SSE,158,0.0,0.0,92,0.00,,OVC004,0.00,VWS V14.01,2013-02-12 16:15:00,
2013-02-12 08:20:00,41.0,38.9,30.39,SSE,158,0.0,0.0,92,0.00,,OVC004,0.00,VWS V14.01,2013-02-12 16:20:00,
2013-02-12 08:25:00,41.0,38.9,30.38,SSE,158,0.0,0.0,92,0.00,,OVC004,0.00,VWS V14.01,2013-02-12 16:25:00,
2013-02-12 08:30:00,41.3,39.2,30.38,SSE,158,0.0,0.0,92,0.00,,OVC004,0.00,VWS V14.01,2013-02-12 16:30:00,
2013-02-12 08:35:00,41.5,39.3,30.38,SSE,158,0.0,0.0,92,0.00,,OVC004,0.00,VWS V14.01,2013-02-12 16:35:00,
2013-02-12 08:40:00,41.5,39.3,30.38,SSE,158,0.0,0.0,92,0.00,,OVC004,0.00,VWS V14.01,2013-02-12 16:40:00,
2013-02-12 08:45:00,41.5,39.3,30.38,SSE,158,0.0,0.0,92,0.00,,OVC004,0.00,VWS V14.01,2013-02-12 16:45:00,
2013-02-12 08:50:00,41.5,39.3,30.39,SSE,158,0.0,0.0,92,0.00,,OVC004,0.00,VWS V14.01,2013-02-12 16:50:00,
2013-02-12 08:55:00,41.5,39.3,30.39,SSE,158,0.0,0.0,92,0.00,,OVC004,0.00,VWS V14.01,2013-02-12 16:55:00,
2013-02-12 09:01:00,41.7,39.5,30.39,SSE,158,0.0,0.0,92,0.00,,OVC004,0.00,VWS V14.01,2013-02-12 17:01:00,
2013-02-12 09:06:00,41.7,39.5,30.39,East,90,0.0,0.0,92,0.00,,OVC004,0.00,VWS V14.01,2013-02-12 17:06:00,
2013-02-12 09:11:00,41.7,39.5,30.39,East,90,0.0,0.0,92,0.00,,OVC004,0.00,VWS V14.01,2013-02-12 17:11:00,
2013-02-12 09:16:00,41.7,39.5,30.39,East,90,0.0,0.0,92,0.00,,OVC004,0.00,VWS V14.01,2013-02-12 17:16:00,
2013-02-12 09:21:00,41.7,39.5,30.39,SE,135,0.0,0.0,92,0.00,,OVC004,0.00,VWS V14.01,2013-02-12 17:21:00,
2013-02-12 09:26:00,41.7,39.5,30.39,SE,135,0.0,0.0,92,0.00,,OVC004,0.00,VWS V14.01,2013-02-12 17:26:00,
2013-02-12 09:31:00,41.9,39.8,30.39,SE,135,0.0,0.0,92,0.00,,OVC004,0.00,VWS V14.01,2013-02-12 17:31:00,
2013-02-12 09:36:00,42.2,40.0,30.39,SE,135,0.0,0.0,92,0.00,,OVC004,0.00,VWS V14.01,2013-02-12 17:36:00,
2013-02-12 09:41:00,42.4,40.2,30.39,SE,135,0.0,0.0,92,0.00,,OVC004,0.00,VWS V14.01,2013-02-12 17:41:00,
2013-02-12 09:46:00,42.4,40.2,30.39,SE,135,0.0,0.0,92,0.00,,OVC004,0.00,VWS V14.01,2013-02-12 17:46:00,
2013-02-12 09:51:00,42.6,40.4,30.39,SE,135,0.0,0.0,92,0.00,,OVC004,0.00,VWS V14.01,2013-02-12 17:51:00,
2013-02-12 09:56:00,42.9,40.7,30.38,SE,135,0.0,0.0,92,0.00,,OVC004,0.00,VWS V14.01,2013-02-12 17:56:00,
2013-02-12 10:01:00,42.9,40.7,30.39,SE,135,0.0,0.0,92,0.00,,OVC004,0.00,VWS V14.01,2013-02-12 18:01:00,
2013-02-12 10:06:00,43.1,40.9,30.39,SE,135,0.0,0.0,92,0.00,,OVC004,0.00,VWS V14.01,2013-02-12 18:06:00,
2013-02-12 10:11:00,43.1,40.9,30.39,SE,135,0.0,0.0,92,0.00,,OVC004,0.00,VWS V14.01,2013-02-12 18:11:00,
2013-02-12 10:17:00,43.3,41.1,30.39,SE,135,0.0,0.0,92,0.00,,OVC004,0.00,VWS V14.01,2013-02-12 18:17:00,
2013-02-12 10:22:00,43.3,41.1,30.39,SE,135,0.0,0.0,92,0.00,,OVC004,0.00,VWS V14.01,2013-02-12 18:22:00,
2013-02-12 10:27:00,43.3,40.8,30.39,SE,135,0.0,0.0,91,0.00,,OVC004,0.00,VWS V14.01,2013-02-12 18:27:00,
2013-02-12 10:32:00,43.1,40.7,30.39,SE,135,0.0,0.0,91,0.00,,OVC004,0.00,VWS V14.01,2013-02-12 18:32:00,
2013-02-12 10:37:00,43.1,40.7,30.40,SE,135,0.0,0.0,91,0.00,,OVC004,0.00,VWS V14.01,2013-02-12 18:37:00,
2013-02-12 10:42:00,43.1,40.7,30.40,SE,135,0.0,0.0,91,0.00,,OVC004,0.00,VWS V14.01,2013-02-12 18:42:00,
2013-02-12 10:47:00,43.1,40.7,30.40,SE,135,0.0,0.0,91,0.00,,OVC004,0.00,VWS V14.01,2013-02-12 18:47:00,
2013-02-12 10:52:00,43.3,40.8,30.40,SE,135,0.0,0.0,91,0.00,,OVC004,0.00,VWS V14.01,2013-02-12 18:52:00,
2013-02-12 10:57:00,43.3,40.8,30.40,SE,135,0.0,0.0,91,0.00,,OVC004,0.00,VWS V14.01,2013-02-12 18:57:00,
2013-02-12 11:02:00,43.3,40.8,30.41,SE,135,0.0,0.0,91,0.00,,OVC004,0.00,VWS V14.01,2013-02-12 19:02:00,
2013-02-12 11:07:00,43.3,40.8,30.40,SE,135,0.0,0.0,91,0.00,,OVC004,0.00,VWS V14.01,2013-02-12 19:07:00,
2013-02-12 11:12:00,43.5,41.0,30.40,SE,135,0.0,0.0,91,0.00,,OVC004,0.00,VWS V14.01,2013-02-12 19:12:00,
2013-02-12 11:17:00,43.5,41.0,30.40,SE,135,0.0,0.0,91,0.00,,OVC004,0.00,VWS V14.01,2013-02-12 19:17:00,
2013-02-12 11:22:00,43.8,41.3,30.40,SE,135,0.0,0.0,91,0.00,,OVC004,0.00,VWS V14.01,2013-02-12 19:22:00,
2013-02-12 11:27:00,43.8,41.3,30.40,SE,135,0.0,0.0,91,0.00,,OVC004,0.00,VWS V14.01,2013-02-12 19:27:00,
2013-02-12 11:32:00,44.2,41.7,30.40,SSE,158,0.0,0.0,91,0.00,,OVC004,0.00,VWS V14.01,2013-02-12 19:32:00,
2013-02-12 11:37:00,44.2,41.7,30.40,SSE,158,0.0,0.0,91,0.00,,OVC004,0.00,VWS V14.01,2013-02-12 19:37:00,
2013-02-12 11:42:00,44.2,41.7,30.39,SSE,158,0.0,0.0,91,0.00,,OVC004,0.00,VWS V14.01,2013-02-12 19:42:00,
2013-02-12 11:47:00,44.2,41.7,30.39,SSE,158,0.0,0.0,91,0.00,,OVC004,0.00,VWS V14.01,2013-02-12 19:47:00,
2013-02-12 11:52:00,44.2,41.7,30.39,SE,135,0.0,0.0,91,0.00,,OVC004,0.00,VWS V14.01,2013-02-12 19:52:00,
2013-02-12 11:57:00,44.2,41.7,30.39,North,0,0.0,0.0,91,0.00,,OVC004,0.00,VWS V14.01,2013-02-12 19:57:00,
2013-02-12 12:02:00,44.7,42.2,30.38,SE,135,0.0,0.0,91,0.00,,OVC005,0.00,VWS V14.01,2013-02-12 20:02:00,
2013-02-12 12:07:00,44.9,42.4,30.39,SE,135,0.0,0.0,91,0.00,,OVC005,0.00,VWS V14.01,2013-02-12 20:07:00,
2013-02-12 12:12:00,45.3,42.5,30.39,SE,135,0.0,0.0,90,0.00,,OVC005,0.00,VWS V14.01,2013-02-12 20:12:00,
2013-02-12 12:18:00,45.3,42.5,30.39,SE,135,0.0,0.0,90,0.00,,OVC005,0.00,VWS V14.01,2013-02-12 20:18:00,
2013-02-12 12:23:00,45.5,42.7,30.38,SE,135,0.0,0.0,90,0.00,,OVC005,0.00,VWS V14.01,2013-02-12 20:23:00,
2013-02-12 12:28:00,45.5,42.7,30.38,South,180,0.0,0.0,90,0.00,,OVC005,0.00,VWS V14.01,2013-02-12 20:28:00,
2013-02-12 12:33:00,45.6,42.8,30.38,SSE,158,0.0,0.0,90,0.00,,OVC005,0.00,VWS V14.01,2013-02-12 20:33:00,
2013-02-12 12:38:00,46.2,43.7,30.37,ESE,112,0.0,0.0,91,0.00,,OVC005,0.00,VWS V14.01,2013-02-12 20:38:00,
2013-02-12 12:43:00,46.7,43.9,30.37,SE,135,0.0,0.0,90,0.00,,OVC005,0.00,VWS V14.01,2013-02-12 20:43:00,
2013-02-12 12:48:00,46.9,44.1,30.37,East,90,0.0,0.0,90,0.00,,OVC005,0.00,VWS V14.01,2013-02-12 20:48:00,
2013-02-12 12:53:00,46.9,43.8,30.37,SSE,158,0.0,0.0,89,0.00,,OVC005,0.00,VWS V14.01,2013-02-12 20:53:00,
2013-02-12 12:58:00,46.9,43.8,30.37,SSE,158,0.0,0.0,89,0.00,,OVC005,0.00,VWS V14.01,2013-02-12 20:58:00,
2013-02-12 13:03:00,46.7,43.6,30.37,SSE,158,0.0,0.0,89,0.00,,OVC005,0.00,VWS V14.01,2013-02-12 21:03:00,
2013-02-12 13:08:00,46.5,43.4,30.36,SSE,158,0.0,0.0,89,0.00,,OVC005,0.00,VWS V14.01,2013-02-12 21:08:00,
2013-02-12 13:13:00,46.5,43.4,30.36,SSE,158,0.0,0.0,89,0.00,,OVC005,0.00,VWS V14.01,2013-02-12 21:13:00,
2013-02-12 13:18:00,46.5,43.4,30.36,SSE,158,0.0,0.0,89,0.00,,OVC005,0.00,VWS V14.01,2013-02-12 21:18:00,
2013-02-12 13:23:00,46.5,43.4,30.36,ESE,112,0.0,0.0,89,0.00,,OVC005,0.00,VWS V14.01,2013-02-12 21:23:00,
2013-02-12 13:28:00,46.5,43.4,30.35,SE,135,0.0,0.0,89,0.00,,OVC005,0.00,VWS V14.01,2013-02-12 21:28:00,
2013-02-12 13:33:00,46.5,43.4,30.36,SE,135,0.0,0.0,89,0.00,,OVC005,0.00,VWS V14.01,2013-02-12 21:33:00,
2013-02-12 13:38:00,46.5,43.4,30.36,SSE,158,0.0,0.0,89,0.00,,OVC005,0.00,VWS V14.01,2013-02-12 21:38:00,
2013-02-12 13:43:00,46.5,43.4,30.35,SSE,158,0.0,0.0,89,0.00,,OVC005,0.00,VWS V14.01,2013-02-12 21:43:00,
2013-02-12 13:48:00,46.7,43.6,30.35,SSE,158,0.0,0.0,89,0.00,,OVC005,0.00,VWS V14.01,2013-02-12 21:48:00,
2013-02-12 13:54:00,46.9,43.8,30.34,SE,135,0.0,0.0,89,0.00,,OVC005,0.00,VWS V14.01,2013-02-12 21:54:00,
2013-02-12 13:59:00,47.1,44.0,30.34,SE,135,0.0,0.0,89,0.00,,OVC005,0.00,VWS V14.01,2013-02-12 21:59:00,
2013-02-12 14:04:00,47.6,44.5,30.34,SE,135,0.0,0.0,89,0.00,,OVC010,0.00,VWS V14.01,2013-02-12 22:04:00,
2013-02-12 14:09:00,48.3,45.2,30.33,SE,135,0.0,0.0,89,0.00,,OVC010,0.00,VWS V14.01,2013-02-12 22:09:00,
2013-02-12 14:14:00,48.7,45.6,30.33,ENE,68,0.0,0.0,89,0.00,,OVC010,0.00,VWS V14.01,2013-02-12 22:14:00,
2013-02-12 14:19:00,48.9,45.5,30.32,East,90,0.0,0.0,88,0.00,,OVC010,0.00,VWS V14.01,2013-02-12 22:19:00,
2013-02-12 14:24:00,49.1,45.7,30.32,ENE,68,0.0,0.0,88,0.00,,OVC010,0.00,VWS V14.01,2013-02-12 22:24:00,
2013-02-12 14:29:00,49.1,45.7,30.32,SSW,202,0.0,0.0,88,0.00,,OVC010,0.00,VWS V14.01,2013-02-12 22:29:00,
2013-02-12 14:34:00,49.2,45.5,30.30,SE,135,0.0,0.0,87,0.00,,OVC010,0.00,VWS V14.01,2013-02-12 22:34:00,
2013-02-12 14:39:00,49.6,45.9,30.31,South,180,0.0,0.0,87,0.00,,OVC010,0.00,VWS V14.01,2013-02-12 22:39:00,
2013-02-12 14:44:00,49.8,46.1,30.29,SSW,202,0.0,0.0,87,0.00,,OVC010,0.00,VWS V14.01,2013-02-12 22:44:00,
2013-02-12 14:49:00,49.8,45.8,30.30,SSE,158,0.0,0.0,86,0.00,,OVC010,0.00,VWS V14.01,2013-02-12 22:49:00,
2013-02-12 14:54:00,49.8,45.8,30.31,ESE,112,0.0,0.0,86,0.00,,OVC010,0.00,VWS V14.01,2013-02-12 22:54:00,
2013-02-12 14:59:00,49.8,45.5,30.31,SE,135,0.0,0.0,85,0.00,,OVC010,0.00,VWS V14.01,2013-02-12 22:59:00,
2013-02-12 15:04:00,50.1,45.8,30.31,NNW,338,0.0,0.0,85,0.00,,OVC010,0.00,VWS V14.01,2013-02-12 23:04:00,
2013-02-12 15:09:00,50.1,45.8,30.31,SSE,158,0.0,0.0,85,0.00,,OVC010,0.00,VWS V14.01,2013-02-12 23:09:00,
2013-02-12 15:14:00,50.3,45.7,30.31,East,90,0.0,0.0,84,0.00,,OVC010,0.00,VWS V14.01,2013-02-12 23:14:00,
2013-02-12 15:20:00,50.5,45.8,30.31,SSE,158,0.0,0.0,84,0.00,,OVC010,0.00,VWS V14.01,2013-02-12 23:20:00,
2013-02-12 15:25:00,50.7,46.0,30.31,SSE,158,0.0,0.0,84,0.00,,OVC010,0.00,VWS V14.01,2013-02-12 23:25:00,
2013-02-12 15:30:00,50.7,46.0,30.31,SW,225,0.0,0.0,84,0.00,,OVC010,0.00,VWS V14.01,2013-02-12 23:30:00,
2013-02-12 15:35:00,50.5,45.5,30.31,NNW,338,0.0,0.0,83,0.00,,OVC010,0.00,VWS V14.01,2013-02-12 23:35:00,
2013-02-12 15:40:00,50.3,45.3,30.30,South,180,3.1,3.1,83,0.00,,OVC010,0.00,VWS V14.01,2013-02-12 23:40:00,
2013-02-12 15:45:00,50.3,45.3,30.30,SE,135,0.0,0.0,83,0.00,,OVC010,0.00,VWS V14.01,2013-02-12 23:45:00,
2013-02-12 15:50:00,50.3,45.0,30.30,ESE,112,0.0,0.0,82,0.00,,OVC010,0.00,VWS V14.01,2013-02-12 23:50:00,
2013-02-12 15:55:00,50.3,45.0,30.30,South,180,0.0,0.0,82,0.00,,OVC010,0.00,VWS V14.01,2013-02-12 23:55:00,
2013-02-12 16:00:00,50.3,45.0,30.30,NNE,22,0.0,0.0,82,0.00,,OVC010,0.41,VWS V14.01,2013-02-13 00:00:00,
2013-02-12 16:05:00,50.3,45.0,30.30,SSE,158,0.0,0.0,82,0.00,,BKN014,0.00,VWS V14.01,2013-02-13 00:05:00,
2013-02-12 16:10:00,50.1,44.5,30.29,West,270,0.0,0.0,81,0.00,,BKN014,0.00,VWS V14.01,2013-02-13 00:10:00,
2013-02-12 16:15:00,49.8,44.2,30.29,SSE,158,0.4,6.7,81,0.00,,BKN014,0.00,VWS V14.01,2013-02-13 00:15:00,
2013-02-12 16:20:00,49.6,44.0,30.29,South,180,0.0,0.0,81,0.00,,BKN014,0.00,VWS V14.01,2013-02-13 00:20:00,
2013-02-12 16:25:00,49.2,43.6,30.29,SW,225,0.0,0.0,81,0.00,,BKN014,0.00,VWS V14.01,2013-02-13 00:25:00,
2013-02-12 16:30:00,48.9,43.7,30.30,SSW,202,5.3,5.3,82,0.00,,BKN014,0.00,VWS V14.01,2013-02-13 00:30:00,
2013-02-12 16:35:00,48.7,43.8,30.30,ESE,112,0.0,0.0,83,0.00,,BKN014,0.00,VWS V14.01,2013-02-13 00:35:00,
2013-02-12 16:40:00,48.5,43.6,30.31,SSW,202,0.0,0.0,83,0.00,,BKN014,0.00,VWS V14.01,2013-02-13 00:40:00,
2013-02-12 16:45:00,48.3,43.7,30.32,SW,225,0.0,0.0,84,0.00,,BKN014,0.00,VWS V14.01,2013-02-13 00:45:00,
2013-02-12 16:50:00,48.2,43.6,30.31,West,270,0.0,0.0,84,0.00,,BKN014,0.00,VWS V14.01,2013-02-13 00:50:00,
2013-02-12 16:55:00,48.0,43.4,30.31,SSE,158,0.0,0.0,84,0.00,,BKN014,0.00,VWS V14.01,2013-02-13 00:55:00,
2013-02-12 17:00:00,47.8,43.2,30.31,ESE,112,0.0,0.0,84,0.00,,BKN014,0.00,VWS V14.01,2013-02-13 01:00:00,
2013-02-12 17:05:00,47.6,43.3,30.32,South,180,0.0,0.0,85,0.00,,BKN014,0.00,VWS V14.01,2013-02-13 01:05:00,
2013-02-12 17:10:00,47.4,43.1,30.32,SSE,158,0.0,0.0,85,0.00,,BKN014,0.00,VWS V14.01,2013-02-13 01:10:00,
2013-02-12 17:15:00,47.3,43.0,30.32,SE,135,0.0,0.0,85,0.00,,BKN014,0.00,VWS V14.01,2013-02-13 01:15:00,
2013-02-12 17:20:00,47.1,43.1,30.32,South,180,0.0,0.0,86,0.00,,BKN014,0.00,VWS V14.01,2013-02-13 01:20:00,
2013-02-12 17:25:00,46.9,42.9,30.32,SSE,158,0.0,0.0,86,0.00,,BKN014,0.00,VWS V14.01,2013-02-13 01:25:00,
2013-02-12 17:30:00,46.9,42.9,30.32,WSW,248,0.0,0.6,86,0.00,,BKN014,0.00,VWS V14.01,2013-02-13 01:30:00,
2013-02-12 17:35:00,46.7,42.7,30.32,SSE,158,0.0,0.0,86,0.00,,BKN014,0.00,VWS V14.01,2013-02-13 01:35:00,
2013-02-12 17:40:00,46.5,42.8,30.32,South,180,0.0,0.0,87,0.00,,BKN014,0.00,VWS V14.01,2013-02-13 01:40:00,
2013-02-12 17:45:00,46.5,42.8,30.32,SSE,158,0.0,0.0,87,0.00,,BKN014,0.00,VWS V14.01,2013-02-13 01:45:00,
2013-02-12 17:50:00,46.2,42.5,30.31,SSE,158,0.0,0.0,87,0.00,,BKN014,0.00,VWS V14.01,2013-02-13 01:50:00,
2013-02-12 17:55:00,46.2,42.8,30.32,NE,45,0.0,0.0,88,0.00,,BKN014,0.00,VWS V14.01,2013-02-13 01:55:00,
2013-02-12 18:00:00,46.2,42.8,30.31,SSW,202,0.0,0.0,88,0.00,,OVC110,0.00,VWS V14.01,2013-02-13 02:00:00,
2013-02-12 18:05:00,46.2,42.8,30.31,SE,135,0.0,0.0,88,0.00,,OVC110,0.00,VWS V14.01,2013-02-13 02:05:00,
2013-02-12 18:10:00,46.0,42.7,30.31,SSE,158,0.0,0.0,88,0.00,,OVC110,0.00,VWS V14.01,2013-02-13 02:10:00,
2013-02-12 18:15:00,46.0,42.7,30.31,SSE,158,0.0,0.0,88,0.00,,OVC110,0.00,VWS V14.01,2013-02-13 02:15:00,
2013-02-12 18:20:00,46.0,42.7,30.31,SSE,158,0.0,0.0,88,0.00,,OVC110,0.00,VWS V14.01,2013-02-13 02:20:00,
2013-02-12 18:25:00,46.0,42.7,30.32,SSE,158,0.0,0.0,88,0.00,,OVC110,0.00,VWS V14.01,2013-02-13 02:25:00,
2013-02-12 18:30:00,46.0,43.0,30.31,SW,225,0.0,0.0,89,0.00,,OVC110,0.00,VWS V14.01,2013-02-13 02:30:00,
2013-02-12 18:35:00,45.8,42.8,30.31,South,180,0.0,0.0,89,0.00,,OVC110,0.00,VWS V14.01,2013-02-13 02:35:00,
2013-02-12 18:40:00,45.6,42.5,30.31,SSW,202,0.0,0.0,89,0.00,,OVC110,0.00,VWS V14.01,2013-02-13 02:40:00,
2013-02-12 18:46:00,45.6,42.5,30.30,SSW,202,0.0,0.0,89,0.00,,OVC110,0.00,VWS V14.01,2013-02-13 02:46:00,
2013-02-12 18:51:00,45.6,42.5,30.30,SW,225,0.0,0.0,89,0.00,,OVC110,0.00,VWS V14.01,2013-02-13 02:51:00,
2013-02-12 18:56:00,45.6,42.5,30.30,West,270,0.0,0.0,89,0.00,,OVC110,0.00,VWS V14.01,2013-02-13 02:56:00,
2013-02-12 19:01:00,45.6,42.5,30.30,SSE,158,0.0,0.0,89,0.00,,OVC110,0.00,VWS V14.01,2013-02-13 03:01:00,
2013-02-12 19:06:00,45.6,42.5,30.30,WSW,248,0.0,0.0,89,0.00,,OVC110,0.00,VWS V14.01,2013-02-13 03:06:00,
2013-02-12 19:11:00,45.5,42.5,30.30,SE,135,0.0,0.0,89,0.00,,OVC110,0.00,VWS V14.01,2013-02-13 03:11:00,
2013-02-12 19:16:00,45.5,42.5,30.30,SW,225,0.0,0.0,89,0.00,,OVC110,0.00,VWS V14.01,2013-02-13 03:16:00,
2013-02-12 19:21:00,45.5,42.7,30.30,SSE,158,0.0,0.0,90,0.00,,OVC110,0.00,VWS V14.01,2013-02-13 03:21:00,
2013-02-12 19:26:00,45.3,42.5,30.29,SSE,158,0.0,0.0,90,0.00,,OVC110,0.00,VWS V14.01,2013-02-13 03:26:00,
2013-02-12 19:31:00,45.3,42.5,30.30,South,180,0.0,0.0,90,0.00,,OVC110,0.00,VWS V14.01,2013-02-13 03:31:00,
2013-02-12 19:36:00,45.1,42.3,30.30,SSE,158,0.0,0.0,90,0.00,,OVC110,0.00,VWS V14.01,2013-02-13 03:36:00,
2013-02-12 19:41:00,45.1,42.3,30.29,WSW,248,0.0,0.0,90,0.00,,OVC110,0.00,VWS V14.01,2013-02-13 03:41:00,
2013-02-12 19:46:00,45.1,42.3,30.29,WSW,248,0.0,0.0,90,0.00,,OVC110,0.00,VWS V14.01,2013-02-13 03:46:00,
2013-02-12 19:51:00,44.9,42.2,30.29,SSE,158,0.0,0.0,90,0.00,,OVC110,0.00,VWS V14.01,2013-02-13 03:51:00,
2013-02-12 19:56:00,44.9,42.2,30.29,SW,225,0.0,0.0,90,0.00,,OVC110,0.00,VWS V14.01,2013-02-13 03:56:00,
2013-02-12 20:01:00,44.9,42.2,30.31,WSW,248,0.0,0.0,90,0.00,,BKN009,0.00,VWS V14.01,2013-02-13 04:01:00,
2013-02-12 20:06:00,44.7,42.0,30.30,SE,135,0.0,0.0,90,0.00,,BKN009,0.00,VWS V14.01,2013-02-13 04:06:00,
2013-02-12 20:11:00,44.7,42.0,30.30,NNE,22,0.0,0.0,90,0.00,,BKN009,0.00,VWS V14.01,2013-02-13 04:11:00,
2013-02-12 20:16:00,44.7,42.0,30.30,West,270,0.0,0.0,90,0.00,,BKN009,0.00,VWS V14.01,2013-02-13 04:16:00,
2013-02-12 20:22:00,44.7,42.0,30.30,SSE,158,0.0,0.0,90,0.00,,BKN009,0.00,VWS V14.01,2013-02-13 04:22:00,
2013-02-12 20:27:00,44.6,41.8,30.30,SE,135,0.0,0.0,90,0.00,,BKN009,0.00,VWS V14.01,2013-02-13 04:27:00,
2013-02-12 20:32:00,44.6,41.8,30.30,ESE,112,0.0,0.0,90,0.00,,BKN009,0.00,VWS V14.01,2013-02-13 04:32:00,
2013-02-12 20:37:00,44.4,41.7,30.30,NE,45,0.0,0.0,90,0.00,,BKN009,0.00,VWS V14.01,2013-02-13 04:37:00,
2013-02-12 20:42:00,44.4,41.7,30.29,SW,225,0.0,0.0,90,0.00,,BKN009,0.00,VWS V14.01,2013-02-13 04:42:00,
2013-02-12 20:47:00,44.4,41.7,30.29,South,180,0.0,0.0,90,0.00,,BKN009,0.00,VWS V14.01,2013-02-13 04:47:00,
2013-02-12 20:52:00,44.2,41.5,30.29,SW,225,0.0,0.0,90,0.00,,BKN009,0.00,VWS V14.01,2013-02-13 04:52:00,
2013-02-12 20:57:00,44.2,41.5,30.29,SSE,158,0.0,0.0,90,0.00,,BKN009,0.00,VWS V14.01,2013-02-13 04:57:00,
2013-02-12 21:00:00,44.2,41.5,30.29,SW,225,0.0,0.0,90,0.00,,BKN009,0.41,VWS V14.01,2013-02-13 05:00:00,
2013-02-12 21:01:00,44.2,41.5,30.29,SW,225,0.0,0.0,90,0.00,,BKN009,0.00,VWS V14.01,2013-02-13 05:01:00,
2013-02-12 21:03:00,44.0,41.3,30.29,ESE,112,0.0,0.0,90,0.00,,BKN009,0.00,VWS V14.01,2013-02-13 05:03:00,
2013-02-12 21:08:00,44.0,41.3,30.30,SSW,202,0.0,0.0,90,0.00,,BKN009,0.00,VWS V14.01,2013-02-13 05:08:00,
2013-02-12 21:13:00,43.8,41.1,30.29,SSE,158,0.0,0.0,90,0.00,,BKN009,0.00,VWS V14.01,2013-02-13 05:13:00,
2013-02-12 21:18:00,43.8,41.1,30.30,SE,135,0.0,0.0,90,0.00,,BKN009,0.00,VWS V14.01,2013-02-13 05:18:00,
2013-02-12 21:23:00,43.7,41.0,30.29,SSE,158,0.0,0.0,90,0.00,,BKN009,0.00,VWS V14.01,2013-02-13 05:23:00,
2013-02-12 21:28:00,43.7,41.0,30.29,ESE,112,0.0,0.0,90,0.00,,BKN009,0.00,VWS V14.01,2013-02-13 05:28:00,
2013-02-12 21:33:00,43.5,40.8,30.30,South,180,0.0,0.0,90,0.00,,BKN009,0.00,VWS V14.01,2013-02-13 05:33:00,
2013-02-12 21:38:00,43.5,40.8,30.29,SE,135,0.0,0.0,90,0.00,,BKN009,0.00,VWS V14.01,2013-02-13 05:38:00,
2013-02-12 21:43:00,43.5,40.8,30.29,SSE,158,0.0,0.0,90,0.00,,BKN009,0.00,VWS V14.01,2013-02-13 05:43:00,
2013-02-12 21:48:00,43.5,40.8,30.29,SE,135,0.0,0.0,90,0.00,,BKN009,0.00,VWS V14.01,2013-02-13 05:48:00,
2013-02-12 21:53:00,43.5,41.0,30.29,South,180,0.0,0.0,91,0.00,,BKN009,0.00,VWS V14.01,2013-02-13 05:53:00,
2013-02-12 21:58:00,43.5,41.0,30.29,SSW,202,0.0,0.0,91,0.00,,BKN009,0.00,VWS V14.01,2013-02-13 05:58:00,
2013-02-12 22:03:00,43.5,41.0,30.29,NNW,338,0.0,0.0,91,0.00,,OVC009,0.00,VWS V14.01,2013-02-13 06:03:00,
2013-02-12 22:09:00,43.7,41.2,30.29,ESE,112,0.0,0.0,91,0.00,,OVC009,0.00,VWS V14.01,2013-02-13 06:09:00,
2013-02-12 22:14:00,43.7,41.2,30.29,SSE,158,0.0,0.0,91,0.00,,OVC009,0.00,VWS V14.01,2013-02-13 06:14:00,
2013-02-12 22:19:00,43.8,41.3,30.29,SE,135,0.0,0.0,91,0.00,,OVC009,0.00,VWS V14.01,2013-02-13 06:19:00,
2013-02-12 22:24:00,43.8,41.3,30.29,South,180,0.0,0.0,91,0.00,,OVC009,0.00,VWS V14.01,2013-02-13 06:24:00,
2013-02-12 22:29:00,44.0,41.5,30.29,South,180,0.0,0.0,91,0.00,,OVC009,0.00,VWS V14.01,2013-02-13 06:29:00,
2013-02-12 22:34:00,44.0,41.5,30.29,SSE,158,0.0,0.0,91,0.00,,OVC009,0.00,VWS V14.01,2013-02-13 06:34:00,
2013-02-12 22:39:00,44.0,41.5,30.29,South,180,0.0,0.0,91,0.00,,OVC009,0.00,VWS V14.01,2013-02-13 06:39:00,
2013-02-12 22:44:00,44.2,41.7,30.29,WSW,248,0.0,0.0,91,0.00,,OVC009,0.00,VWS V14.01,2013-02-13 06:44:00,
2013-02-12 22:49:00,44.2,41.7,30.29,SSE,158,0.0,0.0,91,0.00,,OVC009,0.00,VWS V14.01,2013-02-13 06:49:00,
2013-02-12 22:54:00,44.4,41.9,30.29,East,90,0.0,0.0,91,0.00,,OVC009,0.00,VWS V14.01,2013-02-13 06:54:00,
2013-02-12 22:59:00,44.4,41.9,30.29,WNW,292,0.0,0.0,91,0.00,,OVC009,0.00,VWS V14.01,2013-02-13 06:59:00,
2013-02-12 23:04:00,44.4,41.9,30.29,South,180,0.0,5.8,91,0.00,,OVC009,0.00,VWS V14.01,2013-02-13 07:04:00,
2013-02-12 23:09:00,44.4,41.9,30.29,SSE,158,5.3,5.3,91,0.00,,OVC009,0.00,VWS V14.01,2013-02-13 07:09:00,
2013-02-12 23:14:00,44.4,41.9,30.29,West,270,0.0,0.0,91,0.00,,OVC009,0.00,VWS V14.01,2013-02-13 07:14:00,
2013-02-12 23:19:00,44.4,41.9,30.29,South,180,0.0,0.0,91,0.00,,OVC009,0.00,VWS V14.01,2013-02-13 07:19:00,
2013-02-12 23:24:00,44.4,41.9,30.29,South,180,0.0,0.0,91,0.00,,OVC009,0.00,VWS V14.01,2013-02-13 07:24:00,
2013-02-12 23:29:00,44.6,42.1,30.29,ESE,112,0.0,0.0,91,0.00,,OVC009,0.00,VWS V14.01,2013-02-13 07:29:00,
2013-02-12 23:34:00,44.6,42.1,30.29,East,90,0.0,0.0,91,0.00,,OVC009,0.00,VWS V14.01,2013-02-13 07:34:00,
2013-02-12 23:39:00,44.6,42.1,30.28,SSE,158,0.0,0.0,91,0.00,,OVC009,0.00,VWS V14.01,2013-02-13 07:39:00,
2013-02-12 23:44:00,44.6,42.1,30.28,WSW,248,0.0,0.0,91,0.00,,OVC009,0.00,VWS V14.01,2013-02-13 07:44:00,
2013-02-12 23:49:00,44.6,42.1,30.28,NNE,22,0.0,0.0,91,0.00,,OVC009,0.00,VWS V14.01,2013-02-13 07:49:00,
2013-02-12 23:54:00,44.6,42.1,30.29,NE,45,0.0,0.0,91,0.00,,OVC009,0.00,VWS V14.01,2013-02-13 07:54:00,
2013-02-12 23:59:00,44.6,42.1,30.29,NW,315,0.0,0.0,91,0.00,,OVC009,0.00,VWS V14.01,2013-02-13 07:59:00,